DECAYED
Showing default

PLATFORM-5, 58339 (Decayed)

Orbit data source: Space-Track

PLATFORM-5, 58339 was a payload satellite owned by Endurosat (BG) in LEO that was launched on Sat, 11 Nov 2023 UTC via an FALCON 9 launch vehicle from the Air Force Western Test Range (AFWTR). Payload-class satellites include a variety of spacecraft equipped with specific instruments for various scientific and technological missions. These include communications satellites like Starlink; space stations such as the ISS; scientific satellites like the Hubble; Earth observation satellites from companies like Planet Labs, Umbra, and HawkEye 360; GPS; miniature CubeSats for education and research; and military/defense satellites.

Not visible in the next 10 days
Identifier
58339, 2023-174CM
Orbit
Decayed
Country
Flag of BGBG / BGR
Related business
Manufacturer
Endurosat
Mission
Decayed Commercial Technology
Bus & Motor
CUBESAT 3U, Unknown motor
Mass
5 kg wet, 5 kg dry
Launch date (UTC)
2023-11-11 (3 years ago)
Launch vehicle
FALCON 9
Launch site
Air Force Western Test Range (AFWTR)
Object type
Payload
Rocket body
Debris
Shape & HBR
Box, 0.2 m
Radar Cross Section
0.080 m², Medium (>0.1 m² and < 1m²)

Expand to show TLE details & history
Last TLE update: 1 year ago

TLE from 1 year ago
0 PLATFORM-5
1 58339U 23174CM  25107.24465468  .08573524  24994-5  15773-2 0  9991
2 58339  97.3916 196.6613 0013844 264.7169  95.2546 16.32057255 80737
Epoch: 2025-04-17T05:52Z
TLE epoch observation values (Epoch: 2025-04-17T05:52:18.164Z)
Latitude
-0.00008°
Longitude
-97.03371°
Altitude
191.103 km
Speed
7.791 km/s
True Right ascension
13h 06m 38s
True Declination
0° 00' 00"
Sunlit
Object was in full shadow at epoch
Visualization orbit readout
Latitude
Unknown
Longitude
Unknown
Altitude
Unknown
Speed
Unknown
Apparent Right ascension
Unknown
Apparent Declination
Unknown
Sunlit
N/A
Visualization observer readout
Local Sidereal Time
22:14:18
Azimuth
Unknown
Elevation
Unknown
Doppler factor
Unknown
Orbital elements
Apogee altitude
192.919 km
Perigee altitude
174.75 km
Semi-major axis
6,561.971 km
Eccentricity
0.00138
Inclination
97.3916°
RAAN
196.6613°
Arg. of periapsis
264.7169°
True anomaly
95.41255°
Mean anomaly
95.2546°
Eccentric anomaly
95.33358°
Mean motion
4.08312 °/min
Orbital period
88.17 mins
BSTAR
0.0015773
Loading maneuver chart data...
Computing Atmospheric mass density...
Loading historical data...
Loading historical data...
Loading historical data...
Loading historical data...
Loading historical data...
Loading historical data...
Loading historical data...

Documentation

Showing up to 5 results
|